Hattiesburg, MS

6:50 PM CDT on August 22, 2017 (GMT -0500)
Chain Municipal

Weather History for KHBG - October, 2012

Change the Weather History Date:

Monday, October 29, 2012

  Actual Average Record
Temperature  
Mean Temperature 52 °F 63 °F  
Max Temperature 63 °F 76 °F 87 °F (2000)
Min Temperature 40 °F 50 °F 25 °F (1952)
Degree Days  
Heating Degree Days 13 5  
Month to date heating degree days 58 65  
Since 1 July heating degree days 58 67  
Cooling Degree Days 0 2  
Month to date cooling degree days 98 130  
Year to date cooling degree days 2707 2357  
Moisture  
Dew Point 32 °F    
Average Humidity 52    
Maximum Humidity 79    
Minimum Humidity 25    
Precipitation  
Precipitation 0.00 in 0.11 in 2.54 in (1985)
Month to date precipitation 0.10 3.55  
Year to date precipitation 59.63 49.79  
Sea Level Pressure  
Sea Level Pressure 30.12 in    
Wind  
Wind Speed 8 mph (NNW)    
Max Wind Speed 21 mph    
Max Gust Speed 28 mph    
Visibility 10 miles    
Events      
T = Trace of Precipitation, MM = Missing Value Source: NWS Daily Summary

Daily Weather History Graph

Daily Weather History Graph

Search for Another Location

Airport or City:

Trip Planner

Search our weather history database for the weather conditions in past years. The results will help you decide how hot, cold, wet, or windy it might be!

Date:

Astronomy

Oct. 29, 2012 Rise Set
Actual Time 7:10 AM CDT 6:10 PM CDT
Civil Twilight 6:45 AM CDT 6:35 PM CDT
Nautical Twilight 6:17 AM CDT 7:03 PM CDT
Astronomical Twilight 5:48 AM CDT 7:32 PM CDT
Moon 6:05 PM CDT (10/29) 6:59 AM CDT (10/29)
Length of Visible Light 11h 49m
Length of Day
10h 59m
Full, 100% of the Moon is Illuminated
Oct 29
Full
Oct 29
Full
Nov 6
Last Quarter
Nov 13
New
Nov 20
First Quarter

Hourly Weather History & Observations

Time (CDT) Temp. Windchill Dew Point Humidity Pressure Visibility Wind Dir Wind Speed Gust Speed Precip Events Conditions
12:53 AM 48.0 °F - 34.0 °F 58% 30.14 in 10.0 mi NNW 6.9 mph - N/A   Clear
1:53 AM 46.9 °F - 35.1 °F 63% 30.14 in 10.0 mi NNW 9.2 mph - N/A   Clear
2:53 AM 45.0 °F 40.6 °F 35.1 °F 68% 30.14 in 10.0 mi NNW 8.1 mph - N/A   Clear
3:53 AM 44.1 °F 40.1 °F 35.1 °F 71% 30.14 in 10.0 mi NNW 6.9 mph - N/A   Clear
4:53 AM 43.0 °F 39.5 °F 35.1 °F 74% 30.14 in 10.0 mi NNW 5.8 mph - N/A   Clear
6:53 AM 39.9 °F 35.8 °F 34.0 °F 79% 30.16 in 10.0 mi NW 5.8 mph - N/A   Clear
7:53 AM 42.1 °F 38.4 °F 35.1 °F 76% 30.17 in 10.0 mi NW 5.8 mph - N/A   Clear
8:53 AM 46.9 °F - 34.0 °F 61% 30.19 in 10.0 mi North 10.4 mph 18.4 mph N/A   Clear
9:53 AM 50.0 °F - 33.1 °F 52% 30.21 in 10.0 mi North 12.7 mph 20.7 mph N/A   Clear
12:53 PM 60.1 °F - 28.9 °F 31% 30.13 in 10.0 mi NW 16.1 mph 23.0 mph N/A   Clear
1:53 PM 61.0 °F - 28.0 °F 29% 30.11 in 10.0 mi NNW 16.1 mph 23.0 mph N/A   Clear
3:53 PM 62.1 °F - 27.0 °F 26% 30.07 in 10.0 mi NNW 16.1 mph 24.2 mph N/A   Clear
4:53 PM 61.0 °F - 27.0 °F 27% 30.06 in 10.0 mi NNW 12.7 mph - N/A   Clear
5:53 PM 57.9 °F - 28.9 °F 33% 30.06 in 10.0 mi NNW 9.2 mph 21.9 mph N/A   Clear
6:53 PM 54.0 °F - 30.0 °F 40% 30.08 in 10.0 mi NW 6.9 mph - N/A   Clear
7:53 PM 51.1 °F - 30.9 °F 46% 30.09 in 10.0 mi NW 6.9 mph - N/A   Clear
8:53 PM 50.0 °F - 30.9 °F 48% 30.10 in 10.0 mi NW 9.2 mph - N/A   Clear
9:53 PM 48.0 °F - 32.0 °F 54% 30.10 in 10.0 mi NW 5.8 mph - N/A   Clear
10:53 PM 46.0 °F 43.9 °F 32.0 °F 58% 30.11 in 10.0 mi WNW 4.6 mph - N/A   Clear
11:53 PM 44.1 °F 42.5 °F 32.0 °F 63% 30.09 in 10.0 mi NW 3.5 mph - N/A   Clear